"read_dt","SO2 (ppb)","flags","PMT voltage (V)","lamp voltage (V)","lamp intensity (Hz)","internal temp (C)","react chamber temp (C)","sample flow (l/min)","pres (mmHg)","SO2 bkg (ppb)","SO2 coefficient"
2015-04-11 00:00:00,1778E-3,5C000000,-0724,0836,11982,029.1,045.5,0.476,748.3,01.17,0.508
2015-04-11 00:01:00,1915E-3,5C000000,-0724,0835,12063,028.9,045.5,0.477,748.3,01.17,0.508
2015-04-11 00:02:00,1903E-3,5C000000,-0724,0835,12173,028.6,045.5,0.477,748.3,01.17,0.508
2015-04-11 00:03:00,1761E-3,5C000000,-0724,0835,12241,028.4,045.5,0.477,748.2,01.17,0.508
2015-04-11 00:04:00,1792E-3,5C000000,-0724,0835,12229,028.2,045.5,0.477,748.2,01.17,0.508
2015-04-11 00:05:00,1807E-3,5C000000,-0724,0834,12166,028.0,045.5,0.478,748.2,01.17,0.508
2015-04-11 00:06:00,1847E-3,5C000000,-0724,0835,12064,027.8,045.4,0.478,748.2,01.17,0.508
2015-04-11 00:07:00,1927E-3,5C000000,-0724,0835,12139,027.8,045.5,0.478,748.2,01.17,0.508
2015-04-11 00:08:00,1909E-3,5C000000,-0724,0834,12175,027.6,045.4,0.478,748.2,01.17,0.508
2015-04-11 00:09:00,2003E-3,5C000000,-0724,0834,12092,027.6,045.5,0.479,748.1,01.17,0.508
2015-04-11 00:10:00,1794E-3,5C000000,-0724,0835,12097,027.7,045.4,0.478,748.1,01.17,0.508
2015-04-11 00:11:00,1826E-3,5C000000,-0724,0835,12160,027.8,045.4,0.479,748.1,01.17,0.508
2015-04-11 00:12:00,1738E-3,5C000000,-0724,0835,12145,027.8,045.4,0.478,748.1,01.17,0.508
2015-04-11 00:13:00,1879E-3,5C000000,-0724,0836,12065,027.9,045.4,0.479,748.1,01.17,0.508
2015-04-11 00:14:00,1732E-3,5C000000,-0724,0835,12192,028.1,045.5,0.479,748.1,01.17,0.508
2015-04-11 00:15:00,1776E-3,5C000000,-0724,0835,12185,028.2,045.5,0.478,748.1,01.17,0.508
2015-04-11 00:16:00,1914E-3,5C000000,-0724,0835,12061,028.3,045.5,0.478,748.1,01.17,0.508
2015-04-11 00:17:00,1825E-3,5C000000,-0724,0836,12082,028.5,045.5,0.478,748.1,01.17,0.508
2015-04-11 00:18:00,1887E-3,5C000000,-0724,0835,12300,028.6,045.5,0.478,748.1,01.17,0.508
2015-04-11 00:19:00,1843E-3,5C000000,-0724,0835,12134,028.7,045.5,0.478,748.1,01.17,0.508
2015-04-11 00:20:00,1770E-3,5C000000,-0724,0836,12050,028.8,045.5,0.477,748.1,01.17,0.508
2015-04-11 00:21:00,1842E-3,5C000000,-0724,0836,12010,029.0,045.5,0.477,748.1,01.17,0.508
2015-04-11 00:22:00,1865E-3,5C000000,-0724,0835,12178,029.1,045.5,0.477,748.1,01.17,0.508
2015-04-11 00:23:00,1665E-3,5C000000,-0724,0835,12250,029.2,045.5,0.477,748.1,01.17,0.508
2015-04-11 00:24:00,1919E-3,5C000000,-0724,0835,12160,029.3,045.5,0.477,748.1,01.17,0.508
2015-04-11 00:25:00,1908E-3,5C000000,-0724,0836,12085,029.4,045.5,0.477,748.1,01.17,0.508
2015-04-11 00:26:00,1787E-3,5C000000,-0724,0836,12038,029.5,045.5,0.477,748.1,01.17,0.508
2015-04-11 00:27:00,1904E-3,5C000000,-0724,0835,11978,029.6,045.5,0.477,748.1,01.17,0.508
2015-04-11 00:28:00,1818E-3,5C000000,-0724,0836,12187,029.7,045.5,0.476,748.0,01.17,0.508
2015-04-11 00:29:00,1830E-3,5C000000,-0724,0836,12249,029.8,045.5,0.476,748.0,01.17,0.508
2015-04-11 00:30:00,1826E-3,5C000000,-0724,0836,12087,029.9,045.5,0.476,748.0,01.17,0.508
2015-04-11 00:31:00,1896E-3,5C000000,-0724,0836,12102,029.9,045.5,0.475,748.0,01.17,0.508
2015-04-11 00:32:00,1983E-3,5C000000,-0724,0837,12189,030.0,045.5,0.475,748.0,01.17,0.508
2015-04-11 00:33:00,1875E-3,5C000000,-0724,0837,12136,030.0,045.5,0.475,748.0,01.17,0.508
2015-04-11 00:34:00,1811E-3,5C000000,-0724,0836,12153,030.1,045.5,0.475,748.0,01.17,0.508
2015-04-11 00:35:00,1817E-3,5C000000,-0724,0835,12163,030.1,045.5,0.475,748.0,01.17,0.508
2015-04-11 00:36:00,1683E-3,5C000000,-0724,0836,12158,030.1,045.5,0.475,748.0,01.17,0.508
2015-04-11 00:37:00,1817E-3,5C000000,-0724,0835,12054,030.0,045.5,0.476,748.1,01.17,0.508
2015-04-11 00:38:00,1693E-3,5C000000,-0724,0836,12159,029.9,045.5,0.475,748.0,01.17,0.508
2015-04-11 00:39:00,1684E-3,5C000000,-0724,0837,12032,029.8,045.5,0.475,748.1,01.17,0.508
2015-04-11 00:40:00,1804E-3,5C000000,-0724,0836,12106,029.7,045.5,0.476,748.0,01.17,0.508
2015-04-11 00:41:00,1794E-3,5C000000,-0724,0836,12027,029.6,045.5,0.475,748.0,01.17,0.508
2015-04-11 00:42:00,1891E-3,5C000000,-0724,0835,12273,029.5,045.5,0.476,748.0,01.17,0.508
2015-04-11 00:43:00,1908E-3,5C000000,-0724,0835,12280,029.4,045.5,0.476,748.0,01.17,0.508
2015-04-11 00:44:00,2006E-3,5C000000,-0724,0835,12114,029.2,045.5,0.476,748.0,01.17,0.508
2015-04-11 00:45:00,1702E-3,5C000000,-0724,0834,12089,029.0,045.5,0.476,748.0,01.17,0.508
2015-04-11 00:46:00,1842E-3,5C000000,-0724,0835,12121,028.8,045.5,0.476,748.0,01.17,0.508
2015-04-11 00:47:00,1804E-3,5C000000,-0724,0836,12207,028.5,045.5,0.477,748.0,01.17,0.508
2015-04-11 00:48:00,1776E-3,5C000000,-0724,0836,12206,028.4,045.5,0.477,748.0,01.17,0.508
2015-04-11 00:49:00,1839E-3,5C000000,-0724,0835,12262,028.2,045.5,0.478,748.0,01.17,0.508
2015-04-11 00:50:00,1806E-3,5C000000,-0724,0836,12193,028.0,045.5,0.478,748.0,01.17,0.508
2015-04-11 00:51:00,1927E-3,5C000000,-0724,0835,12227,027.9,045.4,0.478,748.0,01.17,0.508
2015-04-11 00:52:00,1817E-3,5C000000,-0724,0836,12175,027.7,045.5,0.478,748.0,01.17,0.508
2015-04-11 00:53:00,1814E-3,5C000000,-0724,0836,12237,027.7,045.5,0.478,748.0,01.17,0.508
2015-04-11 00:54:00,1784E-3,5C000000,-0724,0836,12088,027.7,045.4,0.479,748.0,01.17,0.508
2015-04-11 00:55:00,1788E-3,5C000000,-0724,0835,12202,027.8,045.5,0.478,747.9,01.17,0.508
2015-04-11 00:56:00,1802E-3,5C000000,-0724,0835,12104,027.9,045.5,0.479,747.9,01.17,0.508
2015-04-11 00:57:00,1755E-3,5C000000,-0724,0835,12158,028.0,045.5,0.478,747.9,01.17,0.508
2015-04-11 00:58:00,1903E-3,5C000000,-0724,0835,12234,028.1,045.5,0.478,747.9,01.17,0.508
2015-04-11 00:59:00,1875E-3,5C000000,-0724,0835,12208,028.2,045.5,0.479,747.9,01.17,0.508
2015-04-11 01:00:00,1829E-3,5C000000,-0724,0836,12116,028.4,045.5,0.478,747.9,01.17,0.508
2015-04-11 01:01:00,1741E-3,5C000000,-0724,0835,12233,028.5,045.5,0.478,747.9,01.17,0.508
2015-04-11 01:02:00,1899E-3,5C000000,-0724,0835,12225,028.6,045.5,0.478,747.9,01.17,0.508
2015-04-11 01:03:00,1865E-3,5C000000,-0724,0836,12162,028.7,045.5,0.478,747.9,01.17,0.508
2015-04-11 01:04:00,1787E-3,5C000000,-0724,0835,12144,028.9,045.5,0.478,747.9,01.17,0.508
2015-04-11 01:05:00,1843E-3,5C000000,-0724,0835,12091,029.0,045.5,0.478,747.9,01.17,0.508
2015-04-11 01:06:00,1740E-3,5C000000,-0724,0836,12133,029.1,045.5,0.477,747.9,01.17,0.508
2015-04-11 01:07:00,1907E-3,5C000000,-0724,0836,12044,029.2,045.5,0.477,747.9,01.17,0.508
2015-04-11 01:08:00,1806E-3,5C000000,-0724,0836,12146,029.3,045.5,0.477,747.9,01.17,0.508
2015-04-11 01:09:00,1808E-3,5C000000,-0724,0836,12302,029.4,045.5,0.477,747.9,01.17,0.508
2015-04-11 01:10:00,1799E-3,5C000000,-0724,0835,12133,029.5,045.5,0.477,747.9,01.17,0.508
2015-04-11 01:11:00,1766E-3,5C000000,-0724,0836,12229,029.6,045.5,0.477,747.9,01.17,0.508
2015-04-11 01:12:00,1836E-3,5C000000,-0724,0835,12228,029.6,045.5,0.476,747.9,01.17,0.508
2015-04-11 01:13:00,1823E-3,5C000000,-0724,0836,12141,029.6,045.5,0.476,747.9,01.17,0.508
2015-04-11 01:14:00,1765E-3,5C000000,-0724,0837,12194,029.6,045.5,0.476,747.8,01.17,0.508
2015-04-11 01:15:00,1843E-3,5C000000,-0724,0837,11890,029.5,045.5,0.476,747.8,01.17,0.508
2015-04-11 01:16:00,1851E-3,5C000000,-0724,0835,12130,029.5,045.5,0.476,747.8,01.17,0.508
2015-04-11 01:17:00,1770E-3,5C000000,-0724,0835,12065,029.4,045.5,0.476,747.8,01.17,0.508
2015-04-11 01:18:00,1874E-3,5C000000,-0724,0835,12286,029.3,045.5,0.476,747.8,01.17,0.508
2015-04-11 01:19:00,1844E-3,5C000000,-0724,0835,12110,029.2,045.5,0.477,747.8,01.17,0.508
2015-04-11 01:20:00,2037E-3,5C000000,-0724,0836,12279,029.1,045.5,0.476,747.8,01.17,0.508
2015-04-11 01:21:00,1862E-3,5C000000,-0724,0835,11993,029.0,045.5,0.477,747.8,01.17,0.508
2015-04-11 01:22:00,1743E-3,5C000000,-0724,0835,11963,028.8,045.5,0.476,747.8,01.17,0.508
2015-04-11 01:23:00,1838E-3,5C000000,-0724,0835,11934,028.5,045.5,0.477,747.8,01.17,0.508
2015-04-11 01:24:00,1868E-3,5C000000,-0724,0835,12267,028.3,045.5,0.477,747.8,01.17,0.508
2015-04-11 01:25:00,1713E-3,5C000000,-0724,0836,12212,028.2,045.4,0.477,747.9,01.17,0.508
2015-04-11 01:26:00,1738E-3,5C000000,-0724,0835,12123,028.0,045.4,0.478,747.9,01.17,0.508
2015-04-11 01:27:00,1921E-3,5C000000,-0724,0836,12223,027.9,045.4,0.478,747.9,01.17,0.508
2015-04-11 01:28:00,1890E-3,5C000000,-0724,0835,12284,027.7,045.4,0.478,747.9,01.17,0.508
2015-04-11 01:29:00,1793E-3,5C000000,-0724,0835,12155,027.6,045.4,0.479,747.9,01.17,0.508
2015-04-11 01:30:00,1791E-3,5C000000,-0724,0836,12122,027.5,045.4,0.478,747.9,01.17,0.508
2015-04-11 01:31:00,1771E-3,5C000000,-0724,0835,12175,027.5,045.5,0.479,747.9,01.17,0.508
2015-04-11 01:32:00,1894E-3,5C000000,-0724,0835,12127,027.6,045.5,0.479,747.8,01.17,0.508
2015-04-11 01:33:00,1892E-3,5C000000,-0724,0835,12232,027.7,045.5,0.479,747.8,01.17,0.508
2015-04-11 01:34:00,1863E-3,5C000000,-0724,0835,12193,027.8,045.5,0.479,747.8,01.17,0.508
2015-04-11 01:35:00,1861E-3,5C000000,-0724,0836,12244,027.9,045.5,0.479,747.8,01.17,0.508
2015-04-11 01:36:00,1721E-3,5C000000,-0724,0835,12163,028.1,045.5,0.478,747.8,01.17,0.508
2015-04-11 01:37:00,1856E-3,5C000000,-0724,0836,12247,028.2,045.5,0.478,747.8,01.17,0.508
2015-04-11 01:38:00,1812E-3,5C000000,-0724,0835,12069,028.3,045.5,0.478,747.8,01.17,0.508
2015-04-11 01:39:00,1815E-3,5C000000,-0724,0835,12037,028.5,045.5,0.478,747.8,01.17,0.508
2015-04-11 01:40:00,1766E-3,5C000000,-0724,0836,12251,028.6,045.5,0.477,747.8,01.17,0.508
2015-04-11 01:41:00,1752E-3,5C000000,-0724,0836,12120,028.8,045.5,0.477,747.7,01.17,0.508
2015-04-11 01:42:00,1778E-3,5C000000,-0724,0836,12004,028.9,045.5,0.478,747.7,01.17,0.508
2015-04-11 01:43:00,1893E-3,5C000000,-0724,0836,12072,029.0,045.5,0.477,747.7,01.17,0.508
2015-04-11 01:44:00,1785E-3,5C000000,-0724,0836,12165,029.1,045.5,0.477,747.7,01.17,0.508
2015-04-11 01:45:00,1875E-3,5C000000,-0724,0836,12105,029.2,045.5,0.477,747.7,01.17,0.508
2015-04-11 01:46:00,1734E-3,5C000000,-0724,0836,12082,029.3,045.5,0.476,747.7,01.17,0.508
2015-04-11 01:47:00,1783E-3,5C000000,-0724,0836,12184,029.3,045.5,0.476,747.7,01.17,0.508
2015-04-11 01:48:00,1684E-3,5C000000,-0724,0836,11995,029.3,045.5,0.476,747.7,01.17,0.508
2015-04-11 01:49:00,1808E-3,5C000000,-0724,0836,12095,029.3,045.5,0.476,747.7,01.17,0.508
2015-04-11 01:50:00,1817E-3,5C000000,-0724,0835,11940,029.2,045.5,0.476,747.7,01.17,0.508
2015-04-11 01:51:00,1680E-3,5C000000,-0724,0836,12063,029.2,045.5,0.476,747.7,01.17,0.508
2015-04-11 01:52:00,1823E-3,5C000000,-0724,0836,12173,029.1,045.5,0.477,747.7,01.17,0.508
2015-04-11 01:53:00,1800E-3,5C000000,-0724,0836,12197,029.0,045.5,0.477,747.7,01.17,0.508
2015-04-11 01:54:00,1760E-3,5C000000,-0724,0836,12134,028.9,045.5,0.476,747.7,01.17,0.508
2015-04-11 01:55:00,1857E-3,5C000000,-0724,0835,12132,028.8,045.5,0.477,747.7,01.17,0.508
2015-04-11 01:56:00,1849E-3,5C000000,-0724,0835,12063,028.7,045.5,0.477,747.7,01.17,0.508
2015-04-11 01:57:00,1757E-3,5C000000,-0724,0835,12200,028.5,045.5,0.477,747.7,01.17,0.508
2015-04-11 01:58:00,1756E-3,5C000000,-0724,0835,12328,028.3,045.5,0.478,747.7,01.17,0.508
2015-04-11 01:59:00,1790E-3,5C000000,-0724,0835,12040,028.1,045.4,0.477,747.7,01.17,0.508
2015-04-11 02:00:00,1705E-3,5C000000,-0724,0835,12172,027.9,045.4,0.478,747.7,01.17,0.508
2015-04-11 02:01:00,1905E-3,5C000000,-0724,0835,12265,027.8,045.4,0.478,747.7,01.17,0.508
2015-04-11 02:02:00,1846E-3,5C000000,-0724,0836,12105,027.7,045.4,0.478,747.7,01.17,0.508
2015-04-11 02:03:00,1829E-3,5C000000,-0724,0835,12239,027.5,045.4,0.479,747.7,01.17,0.508
2015-04-11 02:04:00,1809E-3,5C000000,-0724,0836,12156,027.5,045.4,0.478,747.7,01.17,0.508
2015-04-11 02:05:00,1823E-3,5C000000,-0724,0835,12222,027.4,045.5,0.479,747.7,01.17,0.508
2015-04-11 02:06:00,1838E-3,5C000000,-0724,0835,12162,027.3,045.5,0.479,747.7,01.17,0.508
2015-04-11 02:07:00,1797E-3,5C000000,-0724,0835,12079,027.4,045.4,0.479,747.7,01.17,0.508
2015-04-11 02:08:00,1838E-3,5C000000,-0724,0835,12142,027.5,045.5,0.479,747.6,01.17,0.508
2015-04-11 02:09:00,1908E-3,5C000000,-0724,0836,12071,027.6,045.5,0.479,747.6,01.17,0.508
2015-04-11 02:10:00,1893E-3,5C000000,-0724,0835,12171,027.8,045.5,0.479,747.6,01.17,0.508
2015-04-11 02:11:00,1727E-3,5C000000,-0724,0834,12168,027.9,045.5,0.479,747.6,01.17,0.508
2015-04-11 02:12:00,1787E-3,5C000000,-0724,0836,12093,028.0,045.4,0.478,747.5,01.17,0.508
2015-04-11 02:13:00,1719E-3,5C000000,-0724,0835,12182,028.2,045.5,0.478,747.5,01.17,0.508
2015-04-11 02:14:00,1954E-3,5C000000,-0724,0837,12224,028.3,045.5,0.478,747.5,01.17,0.508
2015-04-11 02:15:00,1970E-3,5C000000,-0724,0836,12168,028.5,045.5,0.478,747.5,01.17,0.508
2015-04-11 02:16:00,1870E-3,5C000000,-0724,0835,12226,028.6,045.5,0.478,747.5,01.17,0.508
2015-04-11 02:17:00,1819E-3,5C000000,-0724,0835,12136,028.7,045.5,0.477,747.5,01.17,0.508
2015-04-11 02:18:00,1741E-3,5C000000,-0724,0836,12110,028.8,045.5,0.477,747.5,01.17,0.508
2015-04-11 02:19:00,1742E-3,5C000000,-0724,0835,12114,028.8,045.5,0.477,747.5,01.17,0.508
2015-04-11 02:20:00,1772E-3,5C000000,-0724,0836,12195,028.8,045.5,0.477,747.5,01.17,0.508
2015-04-11 02:21:00,1766E-3,5C000000,-0724,0835,12194,028.9,045.5,0.477,747.5,01.17,0.508
2015-04-11 02:22:00,1870E-3,5C000000,-0724,0835,12254,028.8,045.5,0.477,747.5,01.17,0.508
2015-04-11 02:23:00,1780E-3,5C000000,-0724,0835,11890,028.8,045.4,0.477,747.5,01.17,0.508
2015-04-11 02:24:00,1839E-3,5C000000,-0724,0834,12182,028.7,045.5,0.477,747.5,01.17,0.508
2015-04-11 02:25:00,1685E-3,5C000000,-0724,0835,12139,028.6,045.5,0.477,747.5,01.17,0.508
2015-04-11 02:26:00,1773E-3,5C000000,-0724,0834,12113,028.6,045.5,0.477,747.5,01.17,0.508
2015-04-11 02:27:00,1895E-3,5C000000,-0724,0836,12210,028.5,045.5,0.477,747.5,01.17,0.508
2015-04-11 02:28:00,1829E-3,5C000000,-0724,0836,12069,028.4,045.5,0.477,747.5,01.17,0.508
2015-04-11 02:29:00,1827E-3,5C000000,-0724,0835,12164,028.2,045.5,0.477,747.5,01.17,0.508
2015-04-11 02:30:00,1790E-3,5C000000,-0724,0835,12044,028.0,045.4,0.478,747.5,01.17,0.508
2015-04-11 02:31:00,1744E-3,5C000000,-0724,0834,12174,027.9,045.5,0.478,747.5,01.17,0.508
2015-04-11 02:32:00,1800E-3,5C000000,-0724,0837,12121,027.7,045.4,0.478,747.5,01.17,0.508
2015-04-11 02:33:00,1698E-3,5C000000,-0724,0835,12125,027.6,045.4,0.478,747.5,01.17,0.508
2015-04-11 02:34:00,1907E-3,5C000000,-0724,0835,12201,027.5,045.4,0.479,747.5,01.17,0.508
2015-04-11 02:35:00,1690E-3,5C000000,-0724,0835,12081,027.4,045.4,0.478,747.5,01.17,0.508
2015-04-11 02:36:00,1873E-3,5C000000,-0724,0835,12162,027.3,045.4,0.479,747.5,01.17,0.508
2015-04-11 02:37:00,1888E-3,5C000000,-0724,0835,12088,027.2,045.4,0.479,747.5,01.17,0.508
2015-04-11 02:38:00,1849E-3,5C000000,-0724,0835,12066,027.2,045.4,0.479,747.5,01.17,0.508
2015-04-11 02:39:00,1765E-3,5C000000,-0724,0835,12213,027.2,045.4,0.479,747.5,01.17,0.508
2015-04-11 02:40:00,1690E-3,5C000000,-0724,0835,12097,027.3,045.4,0.479,747.5,01.17,0.508
2015-04-11 02:41:00,1819E-3,5C000000,-0724,0836,12022,027.4,045.5,0.479,747.4,01.17,0.508
2015-04-11 02:42:00,1779E-3,5C000000,-0724,0835,12167,027.5,045.5,0.479,747.4,01.17,0.508
2015-04-11 02:43:00,1833E-3,5C000000,-0724,0835,12242,027.7,045.5,0.479,747.4,01.17,0.508
2015-04-11 02:44:00,1903E-3,5C000000,-0724,0836,12137,027.8,045.4,0.479,747.4,01.17,0.508
2015-04-11 02:45:00,1812E-3,5C000000,-0724,0835,12144,028.0,045.5,0.479,747.4,01.17,0.508
2015-04-11 02:46:00,1914E-3,5C000000,-0724,0836,12087,028.2,045.5,0.479,747.4,01.17,0.508
2015-04-11 02:47:00,1769E-3,5C000000,-0724,0835,12152,028.4,045.5,0.478,747.4,01.17,0.508
2015-04-11 02:48:00,1891E-3,5C000000,-0724,0835,12097,028.5,045.4,0.478,747.4,01.17,0.508
2015-04-11 02:49:00,1822E-3,5C000000,-0724,0835,12131,028.6,045.5,0.478,747.4,01.17,0.508
2015-04-11 02:50:00,1729E-3,5C000000,-0724,0835,12228,028.7,045.5,0.478,747.3,01.17,0.508
2015-04-11 02:51:00,1831E-3,5C000000,-0724,0836,12054,028.8,045.5,0.478,747.3,01.17,0.508
2015-04-11 02:52:00,1895E-3,5C000000,-0724,0836,12091,028.8,045.5,0.477,747.3,01.17,0.508
2015-04-11 02:53:00,1833E-3,5C000000,-0724,0836,12048,028.8,045.5,0.477,747.3,01.17,0.508
2015-04-11 02:54:00,1903E-3,5C000000,-0724,0835,12113,028.8,045.5,0.477,747.3,01.17,0.508
2015-04-11 02:55:00,1730E-3,5C000000,-0724,0835,12037,028.8,045.5,0.477,747.3,01.17,0.508
2015-04-11 02:56:00,1800E-3,5C000000,-0724,0835,12227,028.7,045.5,0.477,747.4,01.17,0.508
2015-04-11 02:57:00,1880E-3,5C000000,-0724,0837,12178,028.7,045.4,0.477,747.4,01.17,0.508
2015-04-11 02:58:00,1780E-3,5C000000,-0724,0835,12100,028.6,045.4,0.477,747.4,01.17,0.508
2015-04-11 02:59:00,1776E-3,5C000000,-0724,0835,12096,028.6,045.5,0.477,747.4,01.17,0.508
2015-04-11 03:00:00,1851E-3,5C000000,-0724,0835,12200,028.4,045.5,0.477,747.3,01.17,0.508
2015-04-11 03:01:00,1742E-3,5C000000,-0724,0836,12012,028.3,045.5,0.477,747.4,01.17,0.508
2015-04-11 03:02:00,1856E-3,5C000000,-0724,0835,12174,028.1,045.4,0.478,747.4,01.17,0.508
2015-04-11 03:03:00,1727E-3,5C000000,-0724,0834,11986,028.0,045.5,0.477,747.3,01.17,0.508
2015-04-11 03:04:00,1727E-3,5C000000,-0724,0836,12078,027.8,045.5,0.478,747.3,01.17,0.508
2015-04-11 03:05:00,1793E-3,5C000000,-0724,0835,12139,027.7,045.5,0.478,747.3,01.17,0.508
2015-04-11 03:06:00,1823E-3,5C000000,-0724,0836,12119,027.6,045.4,0.479,747.3,01.17,0.508
2015-04-11 03:07:00,1774E-3,5C000000,-0724,0835,11910,027.5,045.4,0.478,747.3,01.17,0.508
2015-04-11 03:08:00,1843E-3,5C000000,-0724,0835,12231,027.4,045.4,0.478,747.2,01.17,0.508
2015-04-11 03:09:00,1752E-3,5C000000,-0724,0834,12098,027.3,045.4,0.479,747.2,01.17,0.508
2015-04-11 03:10:00,1930E-3,5C000000,-0724,0835,12233,027.2,045.4,0.479,747.2,01.17,0.508
2015-04-11 03:11:00,1754E-3,5C000000,-0724,0834,12058,027.2,045.4,0.478,747.2,01.17,0.508
2015-04-11 03:12:00,1815E-3,5C000000,-0724,0835,12198,027.1,045.5,0.479,747.2,01.17,0.508
2015-04-11 03:13:00,1744E-3,5C000000,-0724,0836,12113,027.2,045.4,0.479,747.2,01.17,0.508
2015-04-11 03:14:00,1820E-3,5C000000,-0724,0835,11974,027.4,045.4,0.479,747.2,01.17,0.508
2015-04-11 03:15:00,1868E-3,5C000000,-0724,0835,12194,027.5,045.4,0.479,747.1,01.17,0.508
2015-04-11 03:16:00,1732E-3,5C000000,-0724,0835,12358,027.6,045.4,0.479,747.1,01.17,0.508
2015-04-11 03:17:00,1789E-3,5C000000,-0724,0836,12259,027.8,045.4,0.479,747.1,01.17,0.508
2015-04-11 03:18:00,1743E-3,5C000000,-0724,0835,12246,027.9,045.5,0.479,747.1,01.17,0.508
2015-04-11 03:19:00,1767E-3,5C000000,-0724,0834,12231,028.1,045.5,0.478,747.1,01.17,0.508
2015-04-11 03:20:00,1696E-3,5C000000,-0724,0836,12082,028.2,045.5,0.478,747.1,01.17,0.508
2015-04-11 03:21:00,1774E-3,5C000000,-0724,0836,12139,028.3,045.5,0.478,747.1,01.17,0.508
2015-04-11 03:22:00,1778E-3,5C000000,-0724,0836,12047,028.3,045.5,0.478,747.1,01.17,0.508
2015-04-11 03:23:00,1783E-3,5C000000,-0724,0837,12225,028.3,045.5,0.478,747.1,01.17,0.508
2015-04-11 03:24:00,1853E-3,5C000000,-0724,0836,12074,028.4,045.4,0.478,747.1,01.17,0.508
2015-04-11 03:25:00,1750E-3,5C000000,-0724,0835,12115,028.3,045.5,0.478,747.1,01.17,0.508
2015-04-11 03:26:00,1997E-3,5C000000,-0724,0836,11966,028.4,045.5,0.478,747.1,01.17,0.508
2015-04-11 03:27:00,1906E-3,5C000000,-0724,0835,12220,028.4,045.4,0.478,747.1,01.17,0.508
2015-04-11 03:28:00,1807E-3,5C000000,-0724,0835,12245,028.4,045.4,0.478,747.1,01.17,0.508
2015-04-11 03:29:00,1690E-3,5C000000,-0724,0835,12030,028.3,045.5,0.478,747.2,01.17,0.508
2015-04-11 03:30:00,1701E-3,5C000000,-0724,0836,12120,028.3,045.5,0.478,747.2,01.17,0.508
2015-04-11 03:31:00,1787E-3,5C000000,-0724,0836,12337,028.2,045.5,0.477,747.2,01.17,0.508
2015-04-11 03:32:00,1763E-3,5C000000,-0724,0835,12235,028.1,045.5,0.477,747.2,01.17,0.508
2015-04-11 03:33:00,1819E-3,5C000000,-0724,0835,12233,027.9,045.5,0.477,747.2,01.17,0.508
2015-04-11 03:34:00,1793E-3,5C000000,-0724,0835,12154,027.8,045.4,0.478,747.2,01.17,0.508
2015-04-11 03:35:00,1664E-3,5C000000,-0724,0835,12217,027.6,045.5,0.478,747.2,01.17,0.508
2015-04-11 03:36:00,1865E-3,5C000000,-0724,0836,12197,027.5,045.4,0.479,747.2,01.17,0.508
2015-04-11 03:37:00,1792E-3,5C000000,-0724,0835,12145,027.4,045.4,0.478,747.2,01.17,0.508
2015-04-11 03:38:00,1806E-3,5C000000,-0724,0835,12151,027.3,045.4,0.478,747.2,01.17,0.508
2015-04-11 03:39:00,1886E-3,5C000000,-0724,0835,12209,027.3,045.4,0.479,747.2,01.17,0.508
2015-04-11 03:40:00,1766E-3,5C000000,-0724,0834,12087,027.2,045.4,0.479,747.2,01.17,0.508
2015-04-11 03:41:00,1571E-3,5C000000,-0724,0835,12283,027.1,045.4,0.479,747.2,01.17,0.508
2015-04-11 03:42:00,1813E-3,5C000000,-0724,0835,12112,027.1,045.4,0.479,747.1,01.17,0.508
2015-04-11 03:43:00,1782E-3,5C000000,-0724,0835,12235,027.0,045.4,0.479,747.1,01.17,0.508
2015-04-11 03:44:00,1782E-3,5C000000,-0724,0834,12237,026.9,045.4,0.479,747.1,01.17,0.508
2015-04-11 03:45:00,1804E-3,5C000000,-0724,0835,12132,026.9,045.4,0.479,747.1,01.17,0.508
2015-04-11 03:46:00,1919E-3,5C000000,-0724,0835,12282,026.9,045.4,0.480,747.1,01.17,0.508
2015-04-11 03:47:00,1845E-3,5C000000,-0724,0835,12054,026.8,045.4,0.480,747.1,01.17,0.508
2015-04-11 03:48:00,1888E-3,5C000000,-0724,0835,12173,026.8,045.4,0.479,747.1,01.17,0.508
2015-04-11 03:49:00,1968E-3,5C000000,-0724,0834,12177,026.8,045.5,0.479,747.1,01.17,0.508
2015-04-11 03:50:00,1937E-3,5C000000,-0724,0835,12344,027.0,045.4,0.479,747.0,01.17,0.508
2015-04-11 03:51:00,1964E-3,5C000000,-0724,0835,12098,027.1,045.4,0.479,747.0,01.17,0.508
2015-04-11 03:52:00,1716E-3,5C000000,-0724,0835,12097,027.3,045.4,0.479,747.0,01.17,0.508
2015-04-11 03:53:00,1800E-3,5C000000,-0724,0835,12095,027.4,045.5,0.479,746.9,01.17,0.508
2015-04-11 03:54:00,1842E-3,5C000000,-0724,0836,12197,027.5,045.5,0.479,746.9,01.17,0.508
2015-04-11 03:55:00,1856E-3,5C000000,-0724,0836,12051,027.7,045.4,0.479,746.9,01.17,0.508
2015-04-11 03:56:00,1885E-3,5C000000,-0724,0835,12211,027.9,045.4,0.478,746.9,01.17,0.508
2015-04-11 03:57:00,1814E-3,5C000000,-0724,0835,12180,027.9,045.4,0.478,746.9,01.17,0.508
2015-04-11 03:58:00,2029E-3,5C000000,-0724,0835,12319,028.0,045.5,0.478,746.8,01.17,0.508
2015-04-11 03:59:00,1951E-3,5C000000,-0724,0835,12014,028.1,045.5,0.478,746.8,01.17,0.508
2015-04-11 04:00:00,1663E-3,5C000000,-0724,0835,12172,028.2,045.4,0.478,746.8,01.17,0.508
2015-04-11 04:01:00,1821E-3,5C000000,-0724,0835,12024,028.2,045.5,0.478,746.8,01.17,0.508
2015-04-11 04:02:00,1849E-3,5C000000,-0724,0836,12113,028.2,045.5,0.478,746.8,01.17,0.508
2015-04-11 04:03:00,1907E-3,5C000000,-0724,0836,12174,028.2,045.4,0.477,746.8,01.17,0.508
2015-04-11 04:04:00,1842E-3,5C000000,-0724,0835,12111,028.2,045.4,0.477,746.8,01.17,0.508
2015-04-11 04:05:00,1813E-3,5C000000,-0724,0835,12159,028.2,045.5,0.477,746.8,01.17,0.508
2015-04-11 04:06:00,1818E-3,5C000000,-0724,0836,12009,028.1,045.5,0.477,746.8,01.17,0.508
2015-04-11 04:07:00,1644E-3,5C000000,-0724,0834,11926,028.0,045.5,0.477,746.9,01.17,0.508
2015-04-11 04:08:00,1952E-3,5C000000,-0724,0835,12168,027.9,045.5,0.477,746.9,01.17,0.508
2015-04-11 04:09:00,1850E-3,5C000000,-0724,0835,12146,027.7,045.5,0.478,746.9,01.17,0.508
2015-04-11 04:10:00,1774E-3,5C000000,-0724,0835,12216,027.6,045.4,0.478,746.9,01.17,0.508
2015-04-11 04:11:00,1809E-3,5C000000,-0724,0835,12087,027.5,045.4,0.478,746.9,01.17,0.508
2015-04-11 04:12:00,1817E-3,5C000000,-0724,0835,12159,027.4,045.4,0.479,746.9,01.17,0.508
2015-04-11 04:13:00,1768E-3,5C000000,-0724,0835,12239,027.3,045.4,0.478,746.9,01.17,0.508
2015-04-11 04:14:00,1829E-3,5C000000,-0724,0835,12196,027.2,045.4,0.479,746.9,01.17,0.508
2015-04-11 04:15:00,1744E-3,5C000000,-0724,0835,12304,027.2,045.4,0.479,746.9,01.17,0.508
2015-04-11 04:16:00,1866E-3,5C000000,-0724,0835,12194,027.1,045.4,0.479,746.9,01.17,0.508
2015-04-11 04:17:00,1690E-3,5C000000,-0724,0835,12120,027.0,045.4,0.479,746.9,01.17,0.508
2015-04-11 04:18:00,1803E-3,5C000000,-0724,0835,12063,027.0,045.4,0.479,746.9,01.17,0.508
2015-04-11 04:19:00,1781E-3,5C000000,-0724,0835,12211,026.9,045.4,0.479,746.8,01.17,0.508
2015-04-11 04:20:00,1834E-3,5C000000,-0724,0836,12300,026.9,045.4,0.479,746.8,01.17,0.508